AAL158 KMIA-MMUN

Flight info

Callsign AAL158
Flight time 1h 23m
Altitude 38000
Route GLADZ4 LULLS Y196 CANOA UB879 NOSAT NOSAT1B
Aircraft B738/M-SDE2E3FGHIRWXY/LB1

Departure

Time 2026-04-26 22:57
Airport Miami International Airport (KMIA)

Arrival

Time 2026-04-27 00:21
Airport Cancún International Airport (MMUN)
Time Latitude Longitude Altitude Speed Heading
2026-04-26 22:29 25.79772 -80.27886 14 ft 0 kts 177°
2026-04-26 22:47 25.79780 -80.27886 15 ft 4 kts 178°
2026-04-26 22:47 25.79798 -80.27886 17 ft 4 kts 180°
2026-04-26 22:47 25.79834 -80.27885 15 ft 4 kts 186°
2026-04-26 22:48 25.79860 -80.27880 16 ft 4 kts 199°
2026-04-26 22:48 25.79881 -80.27866 14 ft 4 kts 246°
2026-04-26 22:48 25.79883 -80.27859 14 ft 1 kts 267°
2026-04-26 22:51 25.79886 -80.27874 14 ft 5 kts 294°
2026-04-26 22:51 25.79930 -80.27893 14 ft 9 kts 356°
2026-04-26 22:51 25.80011 -80.27903 14 ft 14 kts 339°
2026-04-26 22:51 25.80049 -80.28007 13 ft 17 kts 267°
2026-04-26 22:52 25.80043 -80.28140 13 ft 17 kts 267°
2026-04-26 22:52 25.80038 -80.28266 14 ft 16 kts 268°
2026-04-26 22:52 25.80033 -80.28389 14 ft 16 kts 267°
2026-04-26 22:52 25.80028 -80.28508 14 ft 15 kts 267°
2026-04-26 22:53 25.80024 -80.28621 15 ft 14 kts 267°
2026-04-26 22:53 25.80019 -80.28729 16 ft 14 kts 268°
2026-04-26 22:53 25.80015 -80.28833 15 ft 13 kts 266°
2026-04-26 22:53 25.80010 -80.28933 15 ft 13 kts 267°
2026-04-26 22:54 25.80006 -80.29043 15 ft 16 kts 268°
2026-04-26 22:54 25.80002 -80.29172 15 ft 17 kts 268°
2026-04-26 22:54 25.79997 -80.29298 15 ft 16 kts 266°
2026-04-26 22:54 25.79990 -80.29419 14 ft 15 kts 267°
2026-04-26 22:55 25.79985 -80.29535 13 ft 15 kts 268°
2026-04-26 22:55 25.79981 -80.29646 13 ft 14 kts 268°
2026-04-26 22:55 25.79978 -80.29753 16 ft 13 kts 268°
2026-04-26 22:55 25.79973 -80.29853 13 ft 13 kts 267°
2026-04-26 22:56 25.79968 -80.29952 13 ft 13 kts 266°
2026-04-26 22:56 25.79967 -80.30055 13 ft 14 kts 285°
2026-04-26 22:56 25.80027 -80.30131 13 ft 14 kts 356°
2026-04-26 22:56 25.80074 -80.30080 13 ft 10 kts 89°
2026-04-26 22:57 25.80078 -80.29959 12 ft 37 kts 87°
2026-04-26 22:57 25.80103 -80.29389 14 ft 109 kts 88°
2026-04-26 22:57 25.80139 -80.28317 64 ft 162 kts 92°
2026-04-26 22:57 25.80185 -80.27034 702 ft 168 kts 90°
2026-04-26 22:58 25.80244 -80.25781 1661 ft 161 kts 90°
2026-04-26 22:58 25.80321 -80.24505 2299 ft 177 kts 88°
2026-04-26 22:58 25.80394 -80.23005 2605 ft 210 kts 89°
2026-04-26 22:58 25.80464 -80.21283 2853 ft 236 kts 90°
2026-04-26 22:59 25.80548 -80.19357 3217 ft 260 kts 84°
2026-04-26 22:59 25.81203 -80.17464 4044 ft 270 kts 54°
2026-04-26 22:59 25.82661 -80.16162 4975 ft 273 kts 21°
2026-04-26 22:59 25.84526 -80.15820 5965 ft 272 kts
2026-04-26 23:00 25.86429 -80.15772 6910 ft 274 kts
2026-04-26 23:00 25.88329 -80.15728 7829 ft 274 kts 360°
2026-04-26 23:00 25.90233 -80.15939 8602 ft 279 kts 341°
2026-04-26 23:00 25.91895 -80.17011 9516 ft 278 kts 315°
2026-04-26 23:01 25.92977 -80.18783 10341 ft 283 kts 292°
2026-04-26 23:01 25.93316 -80.21015 10633 ft 310 kts 269°
2026-04-26 23:01 25.92948 -80.23475 10832 ft 336 kts 257°
2026-04-26 23:01 25.92260 -80.26001 11178 ft 353 kts 253°
2026-04-26 23:02 25.91455 -80.28609 11826 ft 359 kts 253°
2026-04-26 23:02 25.90633 -80.31241 12602 ft 361 kts 253°
2026-04-26 23:02 25.89821 -80.33888 13363 ft 364 kts 253°
2026-04-26 23:02 25.89016 -80.36574 14036 ft 368 kts 254°
2026-04-26 23:03 25.88220 -80.39282 14686 ft 370 kts 254°
2026-04-26 23:03 25.87424 -80.42017 15347 ft 373 kts 254°
2026-04-26 23:03 25.86630 -80.44765 16008 ft 376 kts 254°
2026-04-26 23:03 25.85830 -80.47539 16640 ft 379 kts 254°
2026-04-26 23:04 25.85022 -80.50342 17271 ft 382 kts 254°
2026-04-26 23:04 25.84209 -80.53161 17890 ft 385 kts 254°
2026-04-26 23:04 25.83387 -80.56009 18470 ft 388 kts 254°
2026-04-26 23:04 25.82559 -80.58874 18972 ft 392 kts 254°
2026-04-26 23:05 25.81724 -80.61763 19490 ft 395 kts 254°
2026-04-26 23:05 25.80881 -80.64676 20002 ft 398 kts 254°
2026-04-26 23:05 25.80031 -80.67612 20509 ft 401 kts 254°
2026-04-26 23:05 25.79172 -80.70573 21008 ft 404 kts 254°
2026-04-26 23:06 25.78310 -80.73552 21500 ft 407 kts 255°
2026-04-26 23:06 25.77475 -80.76570 21980 ft 410 kts 255°
2026-04-26 23:06 25.76654 -80.79622 22440 ft 413 kts 255°
2026-04-26 23:06 25.75831 -80.82688 22909 ft 416 kts 255°
2026-04-26 23:07 25.74995 -80.85774 23350 ft 419 kts 255°
2026-04-26 23:07 25.74148 -80.88882 23723 ft 423 kts 255°
2026-04-26 23:07 25.73294 -80.92009 24083 ft 425 kts 255°
2026-04-26 23:07 25.72432 -80.95160 24448 ft 428 kts 255°
2026-04-26 23:08 25.71565 -80.98328 24810 ft 430 kts 255°
2026-04-26 23:08 25.70705 -81.01470 25161 ft 433 kts 255°
2026-04-26 23:08 25.69827 -81.04671 25502 ft 435 kts 255°
2026-04-26 23:08 25.68945 -81.07889 25857 ft 437 kts 255°
2026-04-26 23:09 25.68056 -81.11130 26197 ft 440 kts 255°
2026-04-26 23:09 25.67161 -81.14388 26508 ft 443 kts 256°
2026-04-26 23:09 25.66260 -81.17663 26832 ft 445 kts 256°
2026-04-26 23:09 25.65243 -81.20921 27136 ft 450 kts 249°
2026-04-26 23:10 25.63740 -81.23986 27435 ft 456 kts 239°
2026-04-26 23:10 25.61852 -81.26767 27742 ft 461 kts 231°
2026-04-26 23:10 25.59546 -81.29260 28032 ft 466 kts 225°
2026-04-26 23:10 25.57110 -81.31650 28319 ft 469 kts 224°
2026-04-26 23:11 25.54642 -81.34027 28590 ft 471 kts 224°
2026-04-26 23:11 25.52166 -81.36415 28856 ft 473 kts 224°
2026-04-26 23:11 25.49688 -81.38826 29125 ft 475 kts 224°
2026-04-26 23:11 25.47209 -81.41259 29389 ft 477 kts 225°
2026-04-26 23:12 25.44721 -81.43715 29644 ft 479 kts 225°
2026-04-26 23:12 25.42231 -81.46179 29944 ft 480 kts 225°
2026-04-26 23:12 25.39744 -81.48641 30288 ft 479 kts 225°
2026-04-26 23:12 25.37272 -81.51086 30688 ft 476 kts 225°
2026-04-26 23:13 25.34810 -81.53520 31086 ft 474 kts 225°
2026-04-26 23:13 25.32354 -81.55946 31441 ft 472 kts 225°
2026-04-26 23:13 25.29905 -81.58363 31761 ft 472 kts 225°
2026-04-26 23:13 25.27458 -81.60777 32114 ft 470 kts 225°
2026-04-26 23:14 25.25065 -81.63160 32490 ft 468 kts 226°
2026-04-26 23:14 25.22748 -81.65672 32832 ft 465 kts 229°
2026-04-26 23:14 25.20510 -81.68246 33164 ft 464 kts 230°
2026-04-26 23:14 25.18306 -81.70839 33523 ft 462 kts 230°
2026-04-26 23:15 25.16113 -81.73426 33881 ft 460 kts 230°
2026-04-26 23:15 25.13922 -81.75995 34181 ft 459 kts 230°
2026-04-26 23:15 25.11725 -81.78550 34472 ft 458 kts 230°
2026-04-26 23:15 25.09527 -81.81088 34775 ft 456 kts 230°
2026-04-26 23:16 25.07336 -81.83605 35080 ft 454 kts 230°
2026-04-26 23:16 25.05149 -81.86112 35361 ft 453 kts 230°
2026-04-26 23:16 25.02963 -81.88613 35627 ft 452 kts 230°
2026-04-26 23:16 25.00781 -81.91108 35904 ft 451 kts 230°
2026-04-26 23:17 24.98635 -81.93561 36159 ft 449 kts 230°
2026-04-26 23:17 24.96471 -81.96034 36432 ft 448 kts 230°
2026-04-26 23:17 24.94310 -81.98502 36681 ft 447 kts 230°
2026-04-26 23:17 24.92153 -82.00965 36915 ft 446 kts 230°
2026-04-26 23:18 24.90001 -82.03421 37162 ft 445 kts 230°
2026-04-26 23:18 24.87850 -82.05875 37411 ft 444 kts 230°
2026-04-26 23:18 24.85706 -82.08319 37648 ft 443 kts 230°
2026-04-26 23:18 24.83565 -82.10759 37852 ft 443 kts 230°
2026-04-26 23:19 24.81423 -82.13199 37950 ft 444 kts 231°
2026-04-26 23:19 24.77113 -82.18105 37949 ft 444 kts 231°
2026-04-26 23:20 24.72833 -82.22969 37953 ft 440 kts 231°
2026-04-26 23:20 24.68607 -82.27766 37948 ft 437 kts 231°
2026-04-26 23:21 24.64377 -82.32564 37953 ft 435 kts 231°
2026-04-26 23:21 24.60165 -82.37339 37953 ft 435 kts 231°
2026-04-26 23:22 24.55943 -82.42120 37840 ft 437 kts 232°
2026-04-26 23:22 24.51707 -82.46915 37954 ft 442 kts 232°
2026-04-26 23:23 24.47382 -82.51805 37966 ft 449 kts 232°
2026-04-26 23:23 24.42995 -82.56756 37963 ft 456 kts 232°
2026-04-26 23:24 24.38554 -82.61761 37956 ft 459 kts 232°
2026-04-26 23:24 24.34080 -82.66796 37952 ft 462 kts 232°
2026-04-26 23:25 24.29594 -82.71839 37946 ft 462 kts 232°
2026-04-26 23:25 24.25104 -82.76883 37945 ft 461 kts 233°
2026-04-26 23:26 24.20654 -82.81878 37947 ft 460 kts 233°
2026-04-26 23:26 24.16182 -82.86893 37945 ft 459 kts 233°
2026-04-26 23:27 24.11728 -82.91882 37947 ft 457 kts 233°
2026-04-26 23:27 24.07287 -82.96853 37947 ft 456 kts 233°
2026-04-26 23:28 24.02858 -83.01805 37945 ft 454 kts 233°
2026-04-26 23:28 23.98595 -83.06858 37946 ft 446 kts 239°
2026-04-26 23:29 23.94910 -83.12287 37943 ft 444 kts 242°
2026-04-26 23:29 23.91293 -83.17749 37948 ft 444 kts 241°
2026-04-26 23:30 23.87653 -83.23156 37944 ft 444 kts 241°
2026-04-26 23:30 23.83958 -83.28588 37947 ft 445 kts 241°
2026-04-26 23:31 23.80250 -83.34020 37949 ft 446 kts 240°
2026-04-26 23:31 23.76540 -83.39453 37949 ft 447 kts 240°
2026-04-26 23:32 23.72835 -83.44873 37954 ft 448 kts 240°
2026-04-26 23:32 23.69105 -83.50326 37942 ft 448 kts 240°
2026-04-26 23:33 23.65372 -83.55777 37948 ft 448 kts 240°
2026-04-26 23:33 23.61633 -83.61228 37944 ft 449 kts 240°
2026-04-26 23:34 23.57890 -83.66673 37945 ft 448 kts 240°
2026-04-26 23:34 23.54148 -83.72112 37944 ft 448 kts 240°
2026-04-26 23:35 23.50412 -83.77539 37941 ft 447 kts 240°
2026-04-26 23:35 23.46678 -83.82957 37946 ft 447 kts 240°
2026-04-26 23:36 23.43576 -83.87456 37946 ft 446 kts 240°
2026-04-26 23:36 23.39241 -83.93733 37947 ft 446 kts 240°
2026-04-26 23:37 23.36146 -83.98211 37945 ft 445 kts 240°
2026-04-26 23:37 23.32417 -84.03602 37947 ft 445 kts 240°
2026-04-26 23:38 23.28693 -84.08979 37946 ft 444 kts 240°
2026-04-26 23:38 23.24369 -84.15215 37947 ft 444 kts 240°
2026-04-26 23:39 23.21248 -84.19712 37945 ft 444 kts 239°
2026-04-26 23:39 23.17522 -84.25075 37944 ft 444 kts 239°
2026-04-26 23:40 23.13818 -84.30401 37941 ft 444 kts 239°
2026-04-26 23:40 23.10087 -84.35761 37951 ft 445 kts 239°
2026-04-26 23:41 23.06349 -84.41125 37952 ft 445 kts 239°
2026-04-26 23:41 23.02607 -84.46490 37948 ft 445 kts 239°
2026-04-26 23:42 22.98858 -84.51859 37949 ft 446 kts 239°
2026-04-26 23:42 22.93250 -84.59876 37947 ft 446 kts 239°
2026-04-26 23:43 22.89489 -84.65245 37945 ft 447 kts 239°
2026-04-26 23:43 22.85726 -84.70613 37947 ft 447 kts 239°
2026-04-26 23:44 22.81963 -84.75976 37941 ft 447 kts 239°
2026-04-26 23:44 22.78193 -84.81344 37948 ft 447 kts 239°
2026-04-26 23:45 22.74421 -84.86709 37947 ft 447 kts 239°
2026-04-26 23:45 22.70646 -84.92075 37946 ft 447 kts 238°
2026-04-26 23:46 22.66889 -84.97408 37942 ft 447 kts 238°
2026-04-26 23:46 22.63113 -85.02765 37944 ft 447 kts 238°
2026-04-26 23:47 22.59335 -85.08127 37944 ft 447 kts 238°
2026-04-26 23:47 22.55597 -85.13496 37945 ft 447 kts 239°
2026-04-26 23:48 22.51883 -85.18841 37935 ft 447 kts 238°
2026-04-26 23:48 22.50003 -85.21544 37673 ft 451 kts 238°
2026-04-26 23:48 22.48114 -85.24255 37413 ft 449 kts 238°
2026-04-26 23:49 22.46233 -85.26951 37153 ft 448 kts 238°
2026-04-26 23:49 22.44358 -85.29635 36898 ft 448 kts 238°
2026-04-26 23:49 22.42482 -85.32321 36648 ft 448 kts 238°
2026-04-26 23:49 22.40603 -85.35010 36047 ft 448 kts 238°
2026-04-26 23:50 22.38726 -85.37695 35460 ft 447 kts 238°
2026-04-26 23:50 22.36853 -85.40375 34789 ft 448 kts 237°
2026-04-26 23:50 22.34991 -85.43037 34112 ft 450 kts 237°
2026-04-26 23:50 22.33096 -85.45745 33326 ft 452 kts 237°
2026-04-26 23:51 22.31193 -85.48462 32565 ft 453 kts 237°
2026-04-26 23:51 22.29291 -85.51176 31806 ft 454 kts 237°
2026-04-26 23:51 22.27385 -85.53894 31044 ft 455 kts 237°
2026-04-26 23:51 22.25472 -85.56622 30305 ft 455 kts 237°
2026-04-26 23:52 22.23563 -85.59340 29733 ft 450 kts 237°
2026-04-26 23:52 22.21679 -85.62026 29119 ft 445 kts 237°
2026-04-26 23:52 22.19822 -85.64677 28537 ft 440 kts 237°
2026-04-26 23:52 22.17986 -85.67299 27973 ft 436 kts 237°
2026-04-26 23:53 22.16184 -85.69872 27410 ft 433 kts 237°
2026-04-26 23:53 22.14377 -85.72453 26871 ft 429 kts 237°
2026-04-26 23:53 22.12581 -85.75016 26306 ft 426 kts 237°
2026-04-26 23:53 22.10797 -85.77561 25767 ft 424 kts 237°
2026-04-26 23:54 22.09021 -85.80092 25232 ft 421 kts 237°
2026-04-26 23:54 22.07255 -85.82609 24626 ft 421 kts 237°
2026-04-26 23:54 22.05487 -85.85124 24128 ft 419 kts 237°
2026-04-26 23:54 22.03730 -85.87623 23647 ft 417 kts 237°
2026-04-26 23:55 22.01983 -85.90111 23044 ft 416 kts 237°
2026-04-26 23:55 22.00242 -85.92589 22473 ft 414 kts 237°
2026-04-26 23:55 21.98518 -85.95038 22221 ft 404 kts 237°
2026-04-26 23:55 21.96859 -85.97391 22034 ft 394 kts 236°
2026-04-26 23:56 21.95043 -85.99574 21790 ft 390 kts 227°
2026-04-26 23:56 21.93020 -86.01513 21548 ft 389 kts 224°
2026-04-26 23:56 21.90932 -86.03414 21300 ft 396 kts 224°
2026-04-26 23:56 21.88811 -86.05335 21032 ft 400 kts 224°
2026-04-26 23:57 21.86690 -86.07273 20760 ft 397 kts 224°
2026-04-26 23:57 21.84599 -86.09207 20493 ft 395 kts 224°
2026-04-26 23:57 21.82533 -86.11136 20227 ft 393 kts 224°
2026-04-26 23:57 21.80476 -86.13066 19964 ft 391 kts 225°
2026-04-26 23:58 21.78431 -86.14989 19705 ft 390 kts 225°
2026-04-26 23:58 21.76394 -86.16905 19446 ft 389 kts 224°
2026-04-26 23:58 21.74385 -86.18795 19191 ft 388 kts 224°
2026-04-26 23:58 21.72357 -86.20702 18938 ft 387 kts 224°
2026-04-26 23:59 21.70347 -86.22590 18660 ft 380 kts 224°
2026-04-26 23:59 21.68371 -86.24444 18410 ft 373 kts 224°
2026-04-26 23:59 21.66431 -86.26262 18149 ft 366 kts 224°
2026-04-26 23:59 21.64528 -86.28047 17814 ft 361 kts 224°
2026-04-27 00:00 21.62642 -86.29817 17451 ft 357 kts 224°
2026-04-27 00:00 21.60778 -86.31567 17108 ft 353 kts 224°
2026-04-27 00:00 21.58954 -86.33278 16777 ft 350 kts 224°
2026-04-27 00:00 21.57146 -86.34973 16434 ft 339 kts 224°
2026-04-27 00:01 21.55378 -86.36630 16129 ft 336 kts 224°
2026-04-27 00:01 21.53622 -86.38276 15817 ft 333 kts 224°
2026-04-27 00:01 21.51822 -86.39833 15498 ft 332 kts 218°
2026-04-27 00:01 21.49918 -86.41223 15189 ft 330 kts 216°
2026-04-27 00:02 21.47997 -86.42557 14882 ft 328 kts 216°
2026-04-27 00:02 21.46087 -86.43883 14575 ft 326 kts 216°
2026-04-27 00:02 21.44195 -86.45210 14272 ft 324 kts 216°
2026-04-27 00:02 21.42319 -86.46539 13952 ft 322 kts 216°
2026-04-27 00:03 21.40481 -86.47849 13649 ft 321 kts 216°
2026-04-27 00:03 21.38626 -86.49174 13301 ft 319 kts 216°
2026-04-27 00:03 21.36787 -86.50488 12987 ft 316 kts 216°
2026-04-27 00:03 21.34962 -86.51792 12688 ft 314 kts 216°
2026-04-27 00:04 21.33150 -86.53087 12385 ft 311 kts 216°
2026-04-27 00:04 21.31355 -86.54370 12088 ft 309 kts 216°
2026-04-27 00:04 21.29570 -86.55646 11786 ft 307 kts 216°
2026-04-27 00:04 21.27794 -86.56915 11506 ft 305 kts 216°
2026-04-27 00:05 21.26052 -86.58160 11221 ft 304 kts 216°
2026-04-27 00:05 21.24298 -86.59413 10926 ft 302 kts 216°
2026-04-27 00:05 21.22548 -86.60663 10629 ft 302 kts 216°
2026-04-27 00:05 21.20804 -86.61908 10339 ft 301 kts 216°
2026-04-27 00:06 21.19063 -86.63151 10052 ft 300 kts 216°
2026-04-27 00:06 21.17324 -86.64392 9762 ft 299 kts 215°
2026-04-27 00:06 21.15594 -86.65626 9452 ft 298 kts 216°
2026-04-27 00:06 21.13871 -86.66855 9152 ft 296 kts 216°
2026-04-27 00:07 21.12188 -86.68055 8870 ft 293 kts 215°
2026-04-27 00:07 21.10494 -86.69261 8590 ft 291 kts 215°
2026-04-27 00:07 21.08911 -86.70576 8292 ft 287 kts 232°
2026-04-27 00:07 21.07991 -86.72422 8034 ft 279 kts 257°
2026-04-27 00:08 21.07906 -86.74463 7723 ft 275 kts 281°
2026-04-27 00:08 21.08538 -86.76371 7414 ft 273 kts 301°
2026-04-27 00:08 21.09579 -86.78061 7110 ft 271 kts 304°
2026-04-27 00:08 21.10643 -86.79725 6786 ft 268 kts 304°
2026-04-27 00:09 21.11680 -86.81354 6469 ft 261 kts 304°
2026-04-27 00:09 21.12691 -86.82948 6154 ft 256 kts 304°
2026-04-27 00:09 21.13684 -86.84527 5853 ft 256 kts 304°
2026-04-27 00:09 21.14677 -86.86112 5550 ft 256 kts 304°
2026-04-27 00:10 21.15671 -86.87701 5250 ft 257 kts 304°
2026-04-27 00:10 21.16665 -86.89291 4964 ft 257 kts 304°
2026-04-27 00:10 21.17656 -86.90879 4701 ft 256 kts 304°
2026-04-27 00:10 21.18643 -86.92459 4441 ft 254 kts 304°
2026-04-27 00:11 21.19624 -86.94032 4179 ft 253 kts 304°
2026-04-27 00:11 21.20600 -86.95596 3927 ft 252 kts 304°
2026-04-27 00:11 21.21558 -86.97132 3679 ft 251 kts 303°
2026-04-27 00:11 21.22524 -86.98683 3436 ft 250 kts 303°
2026-04-27 00:12 21.23487 -87.00227 3185 ft 249 kts 303°
2026-04-27 00:12 21.24441 -87.01758 3043 ft 244 kts 303°
2026-04-27 00:12 21.25367 -87.03241 2997 ft 233 kts 303°
2026-04-27 00:12 21.26252 -87.04665 2994 ft 228 kts 303°
2026-04-27 00:13 21.27137 -87.06085 3009 ft 230 kts 303°
2026-04-27 00:13 21.28026 -87.07513 3006 ft 231 kts 300°
2026-04-27 00:13 21.28482 -87.09135 2989 ft 228 kts 266°
2026-04-27 00:13 21.28026 -87.10707 2991 ft 220 kts 232°
2026-04-27 00:14 21.26938 -87.11860 3013 ft 226 kts 213°
2026-04-27 00:14 21.25613 -87.12799 3016 ft 230 kts 211°
2026-04-27 00:14 21.24241 -87.13695 2991 ft 231 kts 200°
2026-04-27 00:14 21.22683 -87.13898 3006 ft 228 kts 169°
2026-04-27 00:15 21.21270 -87.13204 3010 ft 229 kts 139°
2026-04-27 00:15 21.20225 -87.11900 3006 ft 232 kts 125°
2026-04-27 00:15 21.19334 -87.10452 3007 ft 233 kts 123°
2026-04-27 00:15 21.18450 -87.08989 3002 ft 234 kts 124°
2026-04-27 00:16 21.17561 -87.07534 3001 ft 233 kts 124°
2026-04-27 00:16 21.16672 -87.06088 2984 ft 229 kts 124°
2026-04-27 00:16 21.15803 -87.04684 2986 ft 222 kts 124°
2026-04-27 00:16 21.14979 -87.03361 3004 ft 205 kts 124°
2026-04-27 00:17 21.14201 -87.02140 2945 ft 193 kts 124°
2026-04-27 00:17 21.13463 -87.00970 2757 ft 189 kts 124°
2026-04-27 00:17 21.12743 -86.99815 2517 ft 184 kts 124°
2026-04-27 00:17 21.12042 -86.98689 2282 ft 179 kts 124°
2026-04-27 00:18 21.11359 -86.97593 2045 ft 173 kts 124°
2026-04-27 00:18 21.10717 -86.96563 1836 ft 159 kts 124°
2026-04-27 00:18 21.10140 -86.95636 1658 ft 144 kts 123°
2026-04-27 00:18 21.09597 -86.94765 1470 ft 139 kts 123°
2026-04-27 00:19 21.09055 -86.93895 1300 ft 141 kts 123°
2026-04-27 00:19 21.08510 -86.93036 1142 ft 138 kts 123°
2026-04-27 00:19 21.07976 -86.92163 921 ft 141 kts 122°
2026-04-27 00:19 21.07434 -86.91293 763 ft 140 kts 122°
2026-04-27 00:20 21.06893 -86.90427 570 ft 141 kts 122°
2026-04-27 00:20 21.06348 -86.89550 391 ft 142 kts 122°
2026-04-27 00:20 21.05804 -86.88670 200 ft 141 kts 123°
2026-04-27 00:20 21.05267 -86.87806 42 ft 136 kts 124°
2026-04-27 00:21 21.04809 -86.87078 31 ft 90 kts 124°
2026-04-27 00:21 21.04567 -86.86692 31 ft 50 kts 124°
2026-04-27 00:21 21.04426 -86.86489 30 ft 26 kts 135°
2026-04-27 00:21 21.04281 -86.86382 32 ft 25 kts 153°
2026-04-27 00:22 21.04133 -86.86305 41 ft 23 kts 152°
2026-04-27 00:22 21.04022 -86.86232 44 ft 15 kts 200°
2026-04-27 00:22 21.03935 -86.86289 50 ft 14 kts 214°
2026-04-27 00:22 21.03854 -86.86348 50 ft 14 kts 212°
2026-04-27 00:23 21.03764 -86.86409 43 ft 18 kts 212°
2026-04-27 00:23 21.03689 -86.86462 35 ft 9 kts 214°
2026-04-27 00:23 21.03624 -86.86510 29 ft 14 kts 214°
2026-04-27 00:23 21.03568 -86.86559 28 ft 11 kts 243°
2026-04-27 00:24 21.03586 -86.86632 28 ft 10 kts 296°
2026-04-27 00:24 21.03576 -86.86679 28 ft 6 kts 211°
2026-04-27 00:24 21.03542 -86.86708 28 ft 6 kts 235°
2026-04-27 00:24 21.03561 -86.86744 28 ft 6 kts 312°
2026-04-27 00:25 21.03587 -86.86778 28 ft 3 kts 306°
2026-04-27 00:25 21.03589 -86.86780 28 ft 0 kts 307°